GLOBALSTAR M039 [+]

Last updated on May 4, 2016, 3:39 p.m. UTC

1 25961U 99062A   16125.51421542 -.00000104  00000-0  00000+0 0  9993
2 25961  51.9856 331.5721 0003248 158.4546 201.6457 12.62175686759630
UTC
Height (km)
Latitude
Longitude
Inclination
Orbital Period
UTC large
Height (km)
Speed (km/s)
/
Latitude / Longitude
Inclination (degrees)
Orbital Period (minutes)
Azimuth
Elevation
Range (km)
Doppler Factor
iOS Compass Heading
iOS Angle